Back to Previous

Regional Weather Roundup

959 
ASUS44 KLZK 240705
RWRLZK

WEATHER ROUNDUP FOR ARKANSAS
NATIONAL WEATHER SERVICE LITTLE ROCK AR
200 AM CDT FRI OCT 24 2014

NOTE: "FAIR" INDICATES FEW OR NO CLOUDS BELOW 12,000 FEET WITH NO
SIGNIFICANT WEATHER AND/OR OBSTRUCTIONS TO VISIBILITY.

ARZ001-003-010-029-240800-
NORTHWEST ARKANSAS
  
CITY           SKY/WX    TMP DP  RH WIND       PRES   REMARKS
FAYETTEVILLE   CLEAR     48  48 100 CALM      30.14S FOG              
FORT SMITH     CLEAR     57  53  86 NE3       30.13S                  
HARRISON       CLEAR     52  51  97 CALM      30.14S                  
BENTONVILLE    CLEAR     52  48  87 CALM      30.14S                  
ROGERS         PTCLDY    50  49  96 CALM      30.15S                  
SILOAM SPGS    PTCLDY    50  45  81 CALM      30.15R                  
HIGHFILL       MOCLDY    50  50 100 CALM      30.13S FOG              
$$

ARZ004-005-016-240800-
NORTH CENTRAL ARKANSAS
  
CITY           SKY/WX    TMP DP  RH WIND       PRES   REMARKS
BATESVILLE     CLEAR     45  43  93 CALM      30.15S                  
FLIPPIN        CLEAR     48  43  81 CALM      30.14S                  
MTN HOME       CLEAR     51  49  92 CALM      30.13S                  
$$

ARZ040-041-240800-
WEST CENTRAL ARKANSAS
  
CITY           SKY/WX    TMP DP  RH WIND       PRES   REMARKS
MENA           CLEAR     50  50 100 CALM      30.15S                  
MOUNT IDA      PTCLDY    50  48  93 CALM      30.12F FOG              
$$

ARZ009-017-025-026-028-240800-
NORTHEAST ARKANSAS
  
CITY           SKY/WX    TMP DP  RH WIND       PRES   REMARKS
CORNING        FAIR      46  46 100 W5        30.14F                  
JONESBORO      CLEAR     45  45 100 CALM      30.14S                  
NEWPORT        CLEAR     48  47  97 CALM      30.16S                  
WALNUT RIDGE   CLEAR     46  43  87 W5        30.15S                  
BLYTHEVILLE    CLEAR     46  44  93 S3        30.13F                  
$$

ARZ022-023-033-042-044-240800-
CENTRAL ARKANSAS
  
CITY           SKY/WX    TMP DP  RH WIND       PRES   REMARKS
LITTLE ROCK    PTCLDY    51  47  86 CALM      30.16S                  
N LITTLE ROCK    N/A     51  49  92 CALM      30.16S                  
JACKSONVILLE   CLEAR     47  47  99 CALM      30.15F                  
SEARCY         CLEAR     47  46  97 CALM      30.17S FOG              
HOT SPRINGS    CLEAR     50  48  93 CALM      30.15S                  
RUSSELLVILLE   CLEAR     48  47  96 CALM      30.14S                  
$$

ARZ036-240800-
EAST ARKANSAS
  
CITY           SKY/WX    TMP DP  RH WIND       PRES   REMARKS
WEST MEMPHIS   PTCLDY    48  48 100 CALM      30.13S                  
$$

ARZ050-053-066-070-073-240800-
SOUTHWEST ARKANSAS
  
CITY           SKY/WX    TMP DP  RH WIND       PRES   REMARKS
ARKADELPHIA    FAIR      50  50 100 CALM      30.16S                  
CAMDEN         CLEAR     45  41  87 CALM      30.16R FOG              
TEXARKANA      CLEAR     51  49  92 CALM      30.15S                  
EL DORADO      CLEAR     46  44  93 CALM      30.15R                  
DE QUEEN       FOG       50  50 100 CALM      30.13S VSB 1/4          
$$

ARZ056-057-069-240800-
SOUTHEAST ARKANSAS
  
CITY           SKY/WX    TMP DP  RH WIND       PRES   REMARKS
PINE BLUFF     PTCLDY    47  44  90 CALM      30.15R                  
STUTTGART      CLEAR     48  45  87 N5        30.16S                  
MONTICELLO     PTCLDY    45  43  93 CALM      30.14S                  

$$




USA.gov is the U.S. government's official web portal to all federal, state and local government web resources and services.